Location: Amon Carter Post Office
(32.8281°N, 97.0484°W)
Time: 03:00:39
(UTC+00:00)

SJ 16-02 - Visible Passes

Search period start: 02 July 2022 00:00
Search period end: 12 July 2022 00:00
Orbit: 604 x 615 km, 75.0° (Epoch: 01 July)

Date Brightness Start Highest point End Pass type
(mag) Time Alt. Az. Time Alt. Az. Time Alt. Az.
02 Jul 3.8 06:19:10 10° N 06:20:53 19° NNE 06:20:53 19° NNE visible
03 Jul 3.6 06:33:10 10° N 06:34:52 22° N 06:34:52 22° N visible
04 Jul 3.8 06:47:32 10° NNW 06:48:53 20° NNW 06:48:53 20° NNW visible
05 Jul 4.0 05:24:51 10° NNE 05:26:00 14° NE 05:26:00 14° NE visible
05 Jul 4.1 07:02:17 10° NW 07:02:56 14° NW 07:02:56 14° NW visible
06 Jul 3.7 05:38:21 10° N 05:40:04 20° NNE 05:40:04 20° NNE visible
07 Jul 3.6 05:52:24 10° N 05:54:10 23° N 05:54:10 23° N visible
08 Jul 3.7 06:06:50 10° NNW 06:08:17 20° NNW 06:08:17 20° NNW visible
09 Jul 3.7 04:43:54 10° NNE 04:45:30 16° NE 04:45:30 16° NE visible
09 Jul 4.1 06:21:40 10° NW 06:22:26 14° NW 06:22:26 14° NW visible
10 Jul 3.3 04:57:31 10° N 04:59:40 24° NNE 04:59:40 24° NNE visible
11 Jul 3.2 05:11:39 10° N 05:13:52 29° N 05:13:52 29° N visible
